UAL155 PTSA-PKWA

Flight info

Callsign UAL155
Flight time 0h 59m
Altitude 35000
Route UKS STEFF
Aircraft B738/M-SDE2E3FGHIRWXY/LB1

Departure

Time 2026-04-17 03:30
Airport Kosrae International Airport (PTSA)

Arrival

Time 2026-04-17 04:29
Airport Bucholz Army Air Field (PKWA)
Time Latitude Longitude Altitude Speed Heading
2026-04-17 03:07 5.35331 162.95588 27 ft 0 kts 54°
2026-04-17 03:26 5.35331 162.95589 27 ft 0 kts 53°
2026-04-17 03:26 5.35335 162.95590 27 ft 1 kts 29°
2026-04-17 03:26 5.35341 162.95591 27 ft 2 kts
2026-04-17 03:27 5.35352 162.95587 27 ft 2 kts 334°
2026-04-17 03:27 5.35363 162.95580 27 ft 2 kts 327°
2026-04-17 03:27 5.35384 162.95567 27 ft 5 kts 328°
2026-04-17 03:27 5.35420 162.95544 27 ft 7 kts 326°
2026-04-17 03:28 5.35438 162.95502 28 ft 7 kts 271°
2026-04-17 03:28 5.35425 162.95452 28 ft 8 kts 246°
2026-04-17 03:28 5.35394 162.95402 28 ft 9 kts 236°
2026-04-17 03:28 5.35359 162.95349 29 ft 9 kts 237°
2026-04-17 03:29 5.35325 162.95297 30 ft 9 kts 240°
2026-04-17 03:29 5.35308 162.95239 30 ft 9 kts 257°
2026-04-17 03:29 5.35272 162.95199 30 ft 7 kts 181°
2026-04-17 03:29 5.35251 162.95220 30 ft 5 kts 99°
2026-04-17 03:30 5.35274 162.95239 29 ft 5 kts 17°
2026-04-17 03:30 5.35315 162.95287 30 ft 31 kts 56°
2026-04-17 03:30 5.35651 162.95778 26 ft 135 kts 55°
2026-04-17 03:30 5.36289 162.96698 715 ft 162 kts 56°
2026-04-17 03:31 5.36922 162.97569 2077 ft 160 kts 55°
2026-04-17 03:31 5.37647 162.98556 2784 ft 195 kts 56°
2026-04-17 03:31 5.38517 162.99745 3267 ft 227 kts 56°
2026-04-17 03:31 5.39484 163.01072 3981 ft 241 kts 56°
2026-04-17 03:32 5.40518 163.02484 4669 ft 264 kts 54°
2026-04-17 03:32 5.41639 163.04015 5701 ft 273 kts 55°
2026-04-17 03:32 5.42752 163.05566 7034 ft 277 kts 56°
2026-04-17 03:32 5.43895 163.07179 8080 ft 287 kts 55°
2026-04-17 03:33 5.45048 163.08828 9232 ft 290 kts 56°
2026-04-17 03:33 5.46207 163.10496 10402 ft 292 kts 56°
2026-04-17 03:33 5.47424 163.12232 10992 ft 318 kts 55°
2026-04-17 03:33 5.48772 163.14142 11461 ft 349 kts 55°
2026-04-17 03:34 5.50206 163.16164 12431 ft 360 kts 56°
2026-04-17 03:34 5.51669 163.18223 13402 ft 364 kts 56°
2026-04-17 03:34 5.53152 163.20306 14278 ft 369 kts 56°
2026-04-17 03:34 5.54631 163.22381 15129 ft 372 kts 56°
2026-04-17 03:35 5.56146 163.24507 15990 ft 375 kts 56°
2026-04-17 03:35 5.57673 163.26648 16829 ft 379 kts 56°
2026-04-17 03:35 5.59219 163.28817 17648 ft 383 kts 56°
2026-04-17 03:35 5.60776 163.31002 18424 ft 386 kts 56°
2026-04-17 03:36 5.63925 163.35420 19788 ft 393 kts 56°
2026-04-17 03:36 5.65526 163.37667 20450 ft 397 kts 56°
2026-04-17 03:36 5.67140 163.39932 21105 ft 400 kts 56°
2026-04-17 03:37 5.68766 163.42214 21755 ft 404 kts 56°
2026-04-17 03:37 5.70413 163.44525 22387 ft 408 kts 56°
2026-04-17 03:37 5.72069 163.46851 23003 ft 412 kts 56°
2026-04-17 03:37 5.73744 163.49203 23580 ft 415 kts 56°
2026-04-17 03:38 5.75412 163.51546 24070 ft 418 kts 56°
2026-04-17 03:38 5.77115 163.53937 24586 ft 421 kts 56°
2026-04-17 03:38 5.78823 163.56336 25095 ft 424 kts 56°
2026-04-17 03:38 5.80543 163.58752 25590 ft 426 kts 56°
2026-04-17 03:39 5.82275 163.61186 26067 ft 430 kts 56°
2026-04-17 03:39 5.84020 163.63638 26533 ft 432 kts 56°
2026-04-17 03:39 5.85774 163.66102 27002 ft 435 kts 56°
2026-04-17 03:39 5.87540 163.68585 27450 ft 438 kts 56°
2026-04-17 03:40 5.89322 163.71090 27890 ft 441 kts 56°
2026-04-17 03:40 5.91112 163.73606 28318 ft 444 kts 56°
2026-04-17 03:40 5.92917 163.76144 28744 ft 447 kts 56°
2026-04-17 03:40 5.94706 163.78659 29150 ft 450 kts 55°
2026-04-17 03:41 5.96524 163.81216 29659 ft 450 kts 55°
2026-04-17 03:41 5.98339 163.83768 30238 ft 447 kts 55°
2026-04-17 03:41 6.00141 163.86303 30823 ft 444 kts 55°
2026-04-17 03:41 6.01930 163.88819 31410 ft 441 kts 55°
2026-04-17 03:42 6.03712 163.91327 31956 ft 440 kts 55°
2026-04-17 03:42 6.05487 163.93824 32511 ft 438 kts 55°
2026-04-17 03:42 6.07255 163.96313 33098 ft 436 kts 55°
2026-04-17 03:42 6.09012 163.98786 33699 ft 434 kts 55°
2026-04-17 03:43 6.10765 164.01254 34230 ft 432 kts 55°
2026-04-17 03:43 6.12508 164.03709 34719 ft 430 kts 55°
2026-04-17 03:43 6.14250 164.06163 34856 ft 430 kts 55°
2026-04-17 03:44 6.17724 164.11055 34895 ft 431 kts 55°
2026-04-17 03:44 6.21218 164.15979 34899 ft 434 kts 55°
2026-04-17 03:45 6.24708 164.20898 34897 ft 435 kts 55°
2026-04-17 03:45 6.28226 164.25857 34890 ft 435 kts 55°
2026-04-17 03:46 6.31736 164.30805 34886 ft 433 kts 55°
2026-04-17 03:46 6.35222 164.35722 34888 ft 430 kts 55°
2026-04-17 03:47 6.38689 164.40614 34892 ft 428 kts 54°
2026-04-17 03:47 6.42142 164.45486 34894 ft 428 kts 54°
2026-04-17 03:48 6.45570 164.50325 34898 ft 428 kts 54°
2026-04-17 03:48 6.49027 164.55207 34897 ft 428 kts 54°
2026-04-17 03:49 6.52487 164.60093 34897 ft 429 kts 54°
2026-04-17 03:49 6.55954 164.64990 34896 ft 430 kts 54°
2026-04-17 03:50 6.59426 164.69897 34894 ft 430 kts 54°
2026-04-17 03:50 6.62898 164.74805 34897 ft 431 kts 54°
2026-04-17 03:51 6.66375 164.79721 34895 ft 430 kts 54°
2026-04-17 03:51 6.69842 164.84624 34896 ft 430 kts 54°
2026-04-17 03:52 6.73285 164.89495 34898 ft 429 kts 54°
2026-04-17 03:52 6.76749 164.94397 34899 ft 429 kts 54°
2026-04-17 03:53 6.80205 164.99290 34901 ft 429 kts 54°
2026-04-17 03:53 6.83658 165.04178 34900 ft 428 kts 54°
2026-04-17 03:54 6.87090 165.09041 34900 ft 428 kts 54°
2026-04-17 03:54 6.90542 165.13932 34898 ft 428 kts 54°
2026-04-17 03:55 6.93990 165.18819 34898 ft 428 kts 54°
2026-04-17 03:55 6.97437 165.23706 34898 ft 428 kts 54°
2026-04-17 03:56 7.00915 165.28566 34900 ft 427 kts 53°
2026-04-17 03:56 7.04466 165.33365 34898 ft 427 kts 52°
2026-04-17 03:57 7.08023 165.38163 34899 ft 427 kts 53°
2026-04-17 03:57 7.11563 165.42957 34899 ft 427 kts 53°
2026-04-17 03:58 7.15075 165.47725 34899 ft 427 kts 53°
2026-04-17 03:58 7.18609 165.52528 34899 ft 427 kts 53°
2026-04-17 03:59 7.22144 165.57334 34899 ft 427 kts 53°
2026-04-17 03:59 7.25106 165.61363 34899 ft 427 kts 53°
2026-04-17 04:00 7.28615 165.66136 34899 ft 427 kts 53°
2026-04-17 04:00 7.32146 165.70940 34903 ft 427 kts 53°
2026-04-17 04:01 7.35681 165.75752 34901 ft 427 kts 53°
2026-04-17 04:01 7.39214 165.80562 34896 ft 427 kts 52°
2026-04-17 04:02 7.42747 165.85374 34899 ft 426 kts 52°
2026-04-17 04:02 7.44503 165.87766 34663 ft 423 kts 52°
2026-04-17 04:02 7.46232 165.90122 34383 ft 413 kts 52°
2026-04-17 04:02 7.47934 165.92442 34008 ft 408 kts 52°
2026-04-17 04:03 7.49613 165.94731 33599 ft 404 kts 52°
2026-04-17 04:03 7.51275 165.96995 33194 ft 400 kts 52°
2026-04-17 04:03 7.52901 165.99212 32807 ft 396 kts 52°
2026-04-17 04:03 7.54529 166.01431 32426 ft 392 kts 52°
2026-04-17 04:04 7.56144 166.03633 32052 ft 388 kts 52°
2026-04-17 04:04 7.57740 166.05810 31686 ft 385 kts 53°
2026-04-17 04:04 7.59325 166.07971 31323 ft 382 kts 53°
2026-04-17 04:04 7.60899 166.10118 30962 ft 379 kts 53°
2026-04-17 04:05 7.62461 166.12249 30605 ft 377 kts 53°
2026-04-17 04:05 7.64016 166.14370 30248 ft 375 kts 53°
2026-04-17 04:05 7.65563 166.16482 29874 ft 373 kts 53°
2026-04-17 04:05 7.67100 166.18579 29478 ft 370 kts 53°
2026-04-17 04:06 7.68622 166.20658 29086 ft 366 kts 53°
2026-04-17 04:06 7.70128 166.22714 28714 ft 364 kts 53°
2026-04-17 04:06 7.71627 166.24760 28350 ft 361 kts 53°
2026-04-17 04:06 7.73100 166.26771 27999 ft 362 kts 53°
2026-04-17 04:07 7.74616 166.28841 27646 ft 373 kts 53°
2026-04-17 04:07 7.76172 166.30968 27269 ft 377 kts 54°
2026-04-17 04:07 7.77720 166.33082 26883 ft 373 kts 54°
2026-04-17 04:07 7.79252 166.35174 26510 ft 369 kts 54°
2026-04-17 04:08 7.80767 166.37246 26141 ft 365 kts 54°
2026-04-17 04:08 7.82267 166.39296 25786 ft 361 kts 54°
2026-04-17 04:08 7.83752 166.41324 25427 ft 358 kts 54°
2026-04-17 04:08 7.85225 166.43339 25075 ft 355 kts 54°
2026-04-17 04:09 7.86668 166.45312 24712 ft 353 kts 54°
2026-04-17 04:09 7.88118 166.47295 24353 ft 350 kts 55°
2026-04-17 04:09 7.89562 166.49269 24002 ft 348 kts 55°
2026-04-17 04:09 7.90996 166.51231 23639 ft 347 kts 55°
2026-04-17 04:10 7.92422 166.53183 23245 ft 345 kts 55°
2026-04-17 04:10 7.93841 166.55125 22867 ft 342 kts 55°
2026-04-17 04:10 7.95248 166.57049 22502 ft 339 kts 55°
2026-04-17 04:10 7.96644 166.58960 22153 ft 336 kts 55°
2026-04-17 04:11 7.98024 166.60849 21805 ft 333 kts 55°
2026-04-17 04:11 7.99394 166.62724 21460 ft 330 kts 55°
2026-04-17 04:11 8.00753 166.64585 21123 ft 328 kts 56°
2026-04-17 04:11 8.02101 166.66431 20798 ft 326 kts 56°
2026-04-17 04:12 8.03440 166.68264 20464 ft 323 kts 56°
2026-04-17 04:12 8.04769 166.70085 20132 ft 321 kts 56°
2026-04-17 04:12 8.06091 166.71896 19810 ft 320 kts 56°
2026-04-17 04:12 8.07409 166.73702 19467 ft 319 kts 56°
2026-04-17 04:13 8.08721 166.75500 19139 ft 317 kts 56°
2026-04-17 04:13 8.10028 166.77291 18804 ft 316 kts 56°
2026-04-17 04:13 8.11311 166.79050 18481 ft 315 kts 56°
2026-04-17 04:13 8.12608 166.80827 18147 ft 314 kts 56°
2026-04-17 04:14 8.13901 166.82600 17779 ft 313 kts 56°
2026-04-17 04:14 8.15186 166.84362 17441 ft 310 kts 56°
2026-04-17 04:14 8.16463 166.86113 17116 ft 309 kts 56°
2026-04-17 04:14 8.17744 166.87871 16800 ft 312 kts 56°
2026-04-17 04:15 8.19035 166.89643 16485 ft 316 kts 56°
2026-04-17 04:15 8.20353 166.91452 16155 ft 322 kts 55°
2026-04-17 04:15 8.21684 166.93279 15824 ft 322 kts 55°
2026-04-17 04:15 8.23004 166.95090 15482 ft 319 kts 55°
2026-04-17 04:16 8.24313 166.96885 15151 ft 316 kts 55°
2026-04-17 04:16 8.25608 166.98662 14829 ft 313 kts 55°
2026-04-17 04:16 8.26894 167.00426 14505 ft 310 kts 55°
2026-04-17 04:16 8.28171 167.02179 14176 ft 309 kts 56°
2026-04-17 04:17 8.29438 167.03918 13859 ft 307 kts 56°
2026-04-17 04:17 8.30700 167.05651 13509 ft 305 kts 54°
2026-04-17 04:17 8.31954 167.07372 13173 ft 303 kts 55°
2026-04-17 04:17 8.33197 167.09079 12849 ft 300 kts 55°
2026-04-17 04:18 8.34428 167.10769 12536 ft 297 kts 55°
2026-04-17 04:18 8.35647 167.12443 12224 ft 295 kts 54°
2026-04-17 04:18 8.36859 167.14109 11916 ft 293 kts 56°
2026-04-17 04:18 8.38060 167.15759 11610 ft 290 kts 55°
2026-04-17 04:19 8.39252 167.17397 11306 ft 288 kts 56°
2026-04-17 04:19 8.40418 167.19000 11014 ft 286 kts 55°
2026-04-17 04:19 8.41609 167.20638 10707 ft 285 kts 56°
2026-04-17 04:19 8.42778 167.22245 10406 ft 283 kts 55°
2026-04-17 04:20 8.43939 167.23843 10152 ft 280 kts 56°
2026-04-17 04:20 8.45060 167.25384 10011 ft 273 kts 55°
2026-04-17 04:20 8.46170 167.26912 9810 ft 268 kts 56°
2026-04-17 04:20 8.47272 167.28429 9519 ft 266 kts 55°
2026-04-17 04:21 8.48364 167.29932 9246 ft 264 kts 56°
2026-04-17 04:21 8.49449 167.31425 8979 ft 262 kts 55°
2026-04-17 04:21 8.50527 167.32906 8715 ft 261 kts 56°
2026-04-17 04:21 8.51596 167.34378 8446 ft 259 kts 55°
2026-04-17 04:22 8.52659 167.35840 8176 ft 257 kts 56°
2026-04-17 04:22 8.53703 167.37278 7925 ft 258 kts 55°
2026-04-17 04:22 8.54778 167.38759 7666 ft 265 kts 55°
2026-04-17 04:22 8.55879 167.40277 7396 ft 268 kts 55°
2026-04-17 04:23 8.56979 167.41791 7103 ft 265 kts 56°
2026-04-17 04:23 8.58065 167.43285 6832 ft 263 kts 54°
2026-04-17 04:23 8.59142 167.44769 6569 ft 261 kts 54°
2026-04-17 04:23 8.60215 167.46246 6295 ft 259 kts 55°
2026-04-17 04:24 8.61278 167.47709 5996 ft 257 kts 54°
2026-04-17 04:24 8.62323 167.49148 5851 ft 250 kts 55°
2026-04-17 04:24 8.63333 167.50540 5727 ft 242 kts 55°
2026-04-17 04:24 8.64315 167.51892 5613 ft 235 kts 56°
2026-04-17 04:25 8.65256 167.53189 5501 ft 228 kts 55°
2026-04-17 04:25 8.66168 167.54462 5361 ft 221 kts 58°
2026-04-17 04:25 8.66748 167.55914 4873 ft 223 kts 75°
2026-04-17 04:25 8.67182 167.57411 4363 ft 218 kts 73°
2026-04-17 04:26 8.67605 167.58828 3854 ft 203 kts 73°
2026-04-17 04:26 8.68006 167.60145 3367 ft 190 kts 73°
2026-04-17 04:26 8.68389 167.61389 2893 ft 181 kts 72°
2026-04-17 04:26 8.68758 167.62582 2433 ft 176 kts 72°
2026-04-17 04:27 8.69118 167.63754 1991 ft 173 kts 72°
2026-04-17 04:27 8.69473 167.64905 1613 ft 168 kts 72°
2026-04-17 04:27 8.69803 167.65986 1334 ft 157 kts 72°
2026-04-17 04:27 8.70110 167.66982 1172 ft 144 kts 71°
2026-04-17 04:28 8.70404 167.67939 984 ft 142 kts 72°
2026-04-17 04:28 8.70703 167.68914 811 ft 148 kts 72°
2026-04-17 04:28 8.71005 167.69903 619 ft 146 kts 72°
2026-04-17 04:28 8.71302 167.70873 380 ft 143 kts 71°
2026-04-17 04:29 8.71592 167.71815 146 ft 139 kts 71°
2026-04-17 04:29 8.71877 167.72733 -36 ft 131 kts 70°
2026-04-17 04:29 8.72100 167.73455 -40 ft 77 kts 72°
2026-04-17 04:29 8.72194 167.73755 -45 ft 35 kts 72°
2026-04-17 04:30 8.72253 167.73946 -48 ft 14 kts 68°
2026-04-17 04:30 8.72309 167.73981 -37 ft 10 kts 358°
2026-04-17 04:30 8.72375 167.73962 -40 ft 10 kts 344°
2026-04-17 04:30 8.72445 167.73941 -46 ft 11 kts 343°
2026-04-17 04:31 8.72520 167.73920 -41 ft 12 kts 345°
2026-04-17 04:31 8.72592 167.73932 -37 ft 8 kts 26°
2026-04-17 04:31 8.72646 167.73960 -40 ft 9 kts 27°
2026-04-17 04:31 8.72706 167.73994 -42 ft 10 kts 43°
2026-04-17 04:32 8.72716 167.74053 -37 ft 7 kts 106°
2026-04-17 04:32 8.72700 167.74086 -42 ft 2 kts 118°
2026-04-17 04:32 8.72698 167.74090 -40 ft 0 kts 118°